User: anonymous   Login
Location: Wayah Bald
(35.1806°N, 83.5603°W)
Time: 20:37:21
(UTC-04:00)
Language:

Meteor 1-27 Rocket - Orbit

View from above orbital plane
View from above orbital plane
View from above satellite
View from above satellite

Ground track
Ground track

The orbit data is extracted from the following two-line orbital elements,

1 09904U 77024B   14296.65449844  .00000052  00000-0  23171-4 0   961
2 09904 081.2625 344.6915 0055409 171.1683 300.7382 14.06745594926768
Epoch (UTC): 23 October 2014 15:42:28
Eccentricity: 0.0055409
inclination: 81.2625°
perigee height: 830 km
apogee height: 910 km
right ascension of ascending node: 344.6915°
argument of perigee: 171.1683°
revolutions per day: 14.06745594
mean anomaly at epoch: 300.7382°
orbit number at epoch: 92676

The dashed part of the orbit path shows where the satellite is in the earth's shadow,  

DLR